Notices

What's New in latest Release from April 7th, 2021:

- Updated Glossary, including Speed of Maximum Gust, and Total Hourly Precipitation

- Updated national and regional climate services offices contacts and prices information

- Addition of station inventory lists for 1981-2010, 1971-2000, and 1961-1990 Normals.

If you haven't already, please take our survey and provide feedback about our website: https://eccc.sondage-survey.ca/f/LanguageSelection.aspx?s=442ca660-fcf1-47c0-95a9-59707d6fd709

Hourly Data Report for August 15, 2015

IQALUIT CLIMATE
NUNAVUT

63°44'50.000" N
68°32'40.000" W
33.50 m
2402592
71321
XFB

Download Data

Hourly Data (August 2015)
Hourly Data Report for August 15, 2015
TIME
LST
Temp Definition
°C
Dew Point Definition
°C
Rel Hum Definition
%
Precip. Amount Definition
mm

Wind Dir Definition
10's deg

Wind Spd Definition
km/h
Visibility Definition
km
Stn Press Definition
kPa
Hmdx Definition


Wind Chill Definition


Weather Definition


00:00 2.6 1.5 93 0.0 33 13   100.18     LegendNANA
01:00 2.7 1.4 91 0.0 33 10   100.22     LegendNANA
02:00 1.9 1.0 93 0.0 33 9   100.23     LegendNANA
03:00 2.2 1.3 93 0.0 34 6   100.26     LegendNANA
04:00 1.1 -0.3 91 0.0 35 4   100.27     LegendNANA
05:00 2.5 1.1 91 0.0 35 4   100.30     LegendNANA
06:00 5.5 2.1 79 0.0 23 1   100.33     LegendNANA
07:00 6.9 0.8 65 0.0 1 4   100.33     LegendNANA
08:00 6.6 1.8 71 0.0 14 4   100.35     LegendNANA
09:00 6.8 1.8 71 0.0 14 6   100.37     LegendNANA
10:00 6.7 2.3 73 0.0 14 9   100.36     LegendNANA
11:00 6.9 2.4 73 0.0 15 9   100.35     LegendNANA
12:00 7.9 1.7 65 0.0 15 8   100.32     LegendNANA
13:00 8.4 1.7 63 0.0 15 12   100.30     LegendNANA
14:00 7.1 1.2 66 0.0 14 11   100.30     LegendNANA
15:00 7.7 1.5 65 0.0 13 10   100.31     LegendNANA
16:00 6.9 1.5 69 0.0 15 7   100.30     LegendNANA
17:00 6.6 0.9 67 0.0 14 10   100.28     LegendNANA
18:00 8.0 1.6 64 0.0 17 6   100.30     LegendNANA
19:00 7.2 1.9 69 0.0 23 4   100.30     LegendNANA
20:00 7.2 1.9 69 0.0 17 4   100.30     LegendNANA
21:00 6.6 1.4 69 0.0 27 3   100.32     LegendNANA
22:00 7.9 1.4 64 0.0 30 5   100.33     LegendNANA
23:00 5.6 1.2 73 0.0 25 2   100.31     LegendNANA

Notes on Data Quality.

Legend

  • E = Estimated
  • M = Missing
  • NA = Not Available*
  • [empty] = Indicates an unobserved value
Date modified: